Kingman, AZ

7:24 PM MST on October 19, 2017 (GMT -0700)
Kingman

Weather History for KIGM - January, 2013

Change the Weather History Date:

Friday, January 25, 2013

  Actual Average Record
Temperature  
Mean Temperature 52 °F 45 °F  
Max Temperature 63 °F 58 °F 72 °F (1982)
Min Temperature 41 °F 32 °F 8 °F (1937)
Degree Days  
Heating Degree Days 13 20  
Month to date heating degree days 668 535  
Since 1 July heating degree days 1749 1784  
Cooling Degree Days 0 0  
Month to date cooling degree days 0 0  
Year to date cooling degree days 0 0  
Growing Degree Days 2 (Base 50)    
Moisture  
Dew Point 44 °F    
Average Humidity 76    
Maximum Humidity 100    
Minimum Humidity 52    
Precipitation  
Precipitation 0.18 in 0.03 in 0.47 in (1911)
Month to date precipitation 0.23 0.79  
Year to date precipitation 0.23 0.79  
Sea Level Pressure  
Sea Level Pressure 30.12 in    
Wind  
Wind Speed 3 mph (NE)    
Max Wind Speed 10 mph    
Max Gust Speed 12 mph    
Visibility 8 miles    
Events Rain    
T = Trace of Precipitation, MM = Missing Value Source: NWS Daily Summary

Daily Weather History Graph

Daily Weather History Graph

Search for Another Location

Airport or City:

Trip Planner

Search our weather history database for the weather conditions in past years. The results will help you decide how hot, cold, wet, or windy it might be!

Date:

Astronomy

Jan. 25, 2013 Rise Set
Actual Time 7:39 AM MST 5:57 PM MST
Civil Twilight 7:12 AM MST 6:24 PM MST
Nautical Twilight 6:41 AM MST 6:55 PM MST
Astronomical Twilight 6:11 AM MST 7:25 PM MST
Moon 4:58 PM MST (1/25) 6:21 AM MST (1/25)
Length of Visible Light 11h 11m
Length of Day
10h 17m
Waxing Gibbous, 98% of the Moon is Illuminated
Jan 25
Waxing Gibbous
Jan 26
Full
Feb 3
Last Quarter
Feb 10
New
Feb 17
First Quarter

Hourly Weather History & Observations

Time (MST) Temp. Windchill Dew Point Humidity Pressure Visibility Wind Dir Wind Speed Gust Speed Precip Events Conditions
12:08 AM 42.8 °F 40.1 °F 41.0 °F 93% 30.27 in 9.0 mi SE 4.6 mph - N/A   Partly Cloudy
12:51 AM 41.0 °F 35.8 °F 39.9 °F 96% 30.17 in 8.0 mi SE 8.1 mph - N/A   Partly Cloudy
1:51 AM 44.1 °F 41.5 °F 43.0 °F 96% 30.17 in 10.0 mi SE 4.6 mph - N/A   Overcast
2:51 AM 45.0 °F - 43.0 °F 93% 30.17 in 9.0 mi Calm Calm - N/A   Overcast
3:01 AM 44.6 °F - 42.8 °F 93% 30.26 in 10.0 mi Calm Calm - N/A   Overcast
3:51 AM 46.9 °F - 45.0 °F 93% 30.16 in 10.0 mi Calm Calm - N/A   Overcast
4:02 AM 46.4 °F - 44.6 °F 93% 30.25 in 10.0 mi Calm Calm - N/A   Overcast
4:13 AM 46.4 °F 45.2 °F 44.6 °F 93% 30.24 in 10.0 mi East 3.5 mph - N/A   Overcast
4:34 AM 46.4 °F 44.3 °F 44.6 °F 93% 30.24 in 10.0 mi East 4.6 mph - N/A   Overcast
4:51 AM 46.9 °F - 45.0 °F 93% 30.14 in 10.0 mi East 3.5 mph - N/A   Overcast
5:29 AM 44.6 °F 43.1 °F 42.8 °F 93% 30.22 in 6.0 mi North 3.5 mph - N/A   Overcast
5:51 AM 43.0 °F 41.3 °F 42.1 °F 97% 30.13 in 5.0 mi North 3.5 mph - N/A   Overcast
6:13 AM 42.8 °F 41.1 °F 42.8 °F 100% 30.21 in 2.0 mi NNE 3.5 mph - N/A   Overcast
6:17 AM 42.8 °F 41.1 °F 42.8 °F 100% 30.21 in 1.2 mi NE 3.5 mph - N/A   Overcast
6:25 AM 42.8 °F - 42.8 °F 100% 30.22 in 0.8 mi Calm Calm - N/A   Overcast
6:45 AM 42.8 °F 41.1 °F 41.0 °F 93% 30.22 in 1.2 mi ENE 3.5 mph - N/A   Overcast
6:47 AM 42.8 °F 41.1 °F 41.0 °F 93% 30.22 in 2.0 mi ENE 3.5 mph - N/A   Overcast
6:51 AM 42.1 °F 39.2 °F 41.0 °F 96% 30.14 in 6.0 mi ENE 4.6 mph - N/A   Overcast
7:51 AM 43.0 °F 40.3 °F 41.0 °F 93% 30.15 in 7.0 mi East 4.6 mph - N/A   Mostly Cloudy
8:51 AM 45.0 °F 43.5 °F 43.0 °F 93% 30.16 in 10.0 mi East 3.5 mph - N/A   Overcast
9:51 AM 48.0 °F - 44.1 °F 86% 30.16 in 10.0 mi ENE 3.5 mph - N/A   Overcast
10:51 AM 50.0 °F - 44.1 °F 80% 30.15 in 10.0 mi NE 3.5 mph - 0.00 in   Partly Cloudy
11:51 AM 55.0 °F - 45.0 °F 69% 30.12 in 10.0 mi NNE 4.6 mph - N/A   Clear
12:51 PM 57.9 °F - 45.0 °F 62% 30.08 in 10.0 mi Calm Calm - N/A   Clear
1:51 PM 61.0 °F - 46.0 °F 58% 30.02 in 10.0 mi Variable 3.5 mph - N/A   Mostly Cloudy
2:51 PM 62.1 °F - 45.0 °F 53% 30.00 in 10.0 mi North 3.5 mph - N/A   Overcast
3:51 PM 62.1 °F - 45.0 °F 53% 29.99 in 10.0 mi NNE 3.5 mph - N/A   Overcast
4:51 PM 61.0 °F - 44.1 °F 54% 29.98 in 10.0 mi North 8.1 mph - N/A   Overcast
5:51 PM 57.0 °F - 44.1 °F 62% 29.99 in 10.0 mi NNE 6.9 mph - N/A   Overcast
6:51 PM 55.0 °F - 43.0 °F 64% 29.99 in 10.0 mi NNE 3.5 mph - N/A   Overcast
7:51 PM 52.0 °F - 45.0 °F 77% 29.99 in 10.0 mi Calm Calm - 0.01 in Rain Light Rain
8:51 PM 51.1 °F - 45.0 °F 80% 29.99 in 10.0 mi Calm Calm - 0.01 in Rain Light Rain
9:51 PM 50.0 °F - 46.9 °F 89% 29.98 in 7.0 mi NNE 4.6 mph - 0.04 in Rain Light Rain
10:51 PM 48.9 °F - 46.9 °F 93% 29.97 in 8.0 mi Calm Calm - 0.06 in Rain Light Rain
11:51 PM 48.0 °F - 46.0 °F 93% 29.95 in 9.0 mi North 3.5 mph - 0.05 in Rain Light Rain